Погода в Утар-Атах

Россия / Республика Татарстан     56°09′07″N   49°39′37″E
темп.,
°C
ветер,
м/с
пор.,
м/с
влажн.,
%
обл.,
%
осадки,
мм/ч
давл.,
гПа
погр.,
м
7 марта, вс
вс700:00−14зюз2397100 0.2 101133
03:00−15зюз239797 0.3 101123
06:00−16зюз239884 0.1 101035
09:00−14юз349691 0.1 1010173
12:00−11ююз469595 0.0 1009294
15:00−10ю589397 0.1 1006487
18:00−11ю51195100 0.1 1004328
21:00−8ю81494100 0.6 1001709
8 марта, пн
пн800:00−8ю81494100 1.3 997741
03:00−7ю71394100 2.1 994618
06:00−6ю61295100 1.2 990583
09:00−5з101493100 2.5 991859
12:00−6зюз9147662 0.1 994832
15:00−6зюз7118549 0.1 997953
18:00−9зюз4989100 0.1 998215
21:00−11з3492100 0.1 99940
9 марта, вт
вт900:00−13з479619 0.0 100190
03:00−15з479721 0.0 1004108
06:00−17зсз349968 0.0 100752
09:00−15з349674 0.1 1009131
12:00−12з239091 0.0 1010316
15:00−11з129095 0.1 1010306
18:00−14с3696100 0.1 1011133
21:00−15с3696100 0.2 1012159
10 марта, ср
ср1000:00−17с489791 0.1 1012190
03:00−19с599694 0.1 1013235
06:00−23с51097100 0.0 1014242
09:00−24с6109699 0.1 1016288
12:00−21с699191 0.0 1017404
15:00−20ссз6108871 0.0 1018500
18:00−22ссз510933 0.0 1020183
21:00−25ссз49969 0.0 1021133
11 марта, чт
чт1100:00−26сз47970 0.0 102293
03:00−26сз45980 0.0 102275
06:00−26зсз489828 0.0 1022139
09:00−20зсз589662 0.0 1022300
12:00−15зсз5893100 0.1 1022430
15:00−12сз4892100 0.4 1022570
18:00−11зсз389496 0.1 1023252
21:00−13сз4109084 0.1 1025183